EHI
0 0 0 0 0 0 0 0 0 0 0 0 0 1 2 2 1 5 13 18 19 17 14 14 17 19 17 15 13 11 9 8 8 8 9 9 9 7 5 5 5 5 2 1
0 0 0 0 0 0 0 0 0 0 0 0 0 1 3 3 4 6 13 19 20 18 17 15 18 20 21 20 17 14 11 10 10 10 10 10 9 7 5 4 5 5 4 3
0 0 0 0 1 1 1 0 0 0 0 1 2 3 4 5 5 6 11 16 20 20 19 18 19 22 23 23 21 18 15 14 12 11 10 8 7 7 6 5 7 7 7 7
0 0 0 0 1 2 2 1 0 1 1 2 3 3 4 4 4 4 6 10 14 16 17 18 20 22 23 22 22 21 19 17 14 11 9 8 8 10 10 10 11 12 12 11
0 0 0 0 1 1 2 2 1 2 2 2 2 2 2 1 1 2 4 6 7 11 14 17 21 24 25 23 22 22 21 20 16 12 12 13 14 15 16 15 14 15 16 15
0 0 0 0 0 0 1 1 1 1 1 1 1 1 1 1 2 4 6 7 6 9 13 18 24 31 32 29 27 25 23 23 22 19 17 18 20 21 21 19 17 16 16 16
0 0 0 0 0 0 0 1 1 0 1 2 2 2 2 3 4 7 10 11 11 12 14 20 29 36 35 32 30 26 24 26 28 26 23 23 25 26 25 23 20 17 15 15
0 0 0 0 0 0 1 1 1 0 0 2 3 3 2 3 5 8 13 15 15 17 19 23 30 33 32 30 29 28 27 30 33 33 29 28 31 31 30 27 22 17 14 14
0 0 0 0 0 1 1 2 1 0 0 2 2 1 1 1 3 8 14 17 17 19 24 26 27 28 28 29 31 32 35 37 39 40 36 35 35 33 30 25 18 14 13 13
0 0 0 0 0 1 1 1 1 0 0 1 1 0 0 0 2 6 10 15 16 16 21 25 25 24 27 31 37 40 41 42 44 42 38 34 31 27 24 20 15 12 13 13
0 0 0 0 0 1 1 1 0 0 0 0 0 0 0 0 1 2 6 10 12 13 16 19 21 24 28 35 42 43 41 40 38 34 29 24 18 13 12 13 12 10 11 12
0 0 0 0 0 1 1 0 1 1 0 0 0 0 0 0 0 1 4 7 10 12 14 14 16 20 28 35 41 41 37 33 28 24 20 14 7 3 3 5 5 4 4 5
0 0 0 0 0 0 0 0 1 1 0 0 0 0 0 0 0 1 3 5 8 10 11 11 11 14 21 27 33 34 30 25 22 20 16 11 5 3 2 2 1 1 0 0
0 0 0 0 0 0 0 0 1 1 0 0 0 0 0 0 0 1 2 3 4 5 6 7 8 10 14 18 22 23 21 19 19 18 13 9 7 5 5 4 3 2 1 0
0 0 0 0 0 0 0 0 0 0 0 0 0 0 0 0 0 0 1 1 1 2 3 3 4 6 9 12 12 13 13 13 13 12 9 7 6 5 5 5 4 2 1 1
0 0 0 0 0 0 0 0 0 0 0 0 0 0 0 0 0 0 0 0 0 1 1 1 2 3 5 6 6 6 7 6 6 6 6 5 5 3 3 3 2 1 1 0
0 0 0 1 1 0 0 0 0 0 0 0 0 0 0 0 0 0 0 0 0 0 0 0 1 2 3 3 3 3 4 3 3 4 5 5 5 4 2 2 1 0 0 0
0 0 1 2 1 0 0 0 0 0 0 0 0 0 0 0 0 0 0 0 0 0 0 0 1 2 2 2 3 3 3 3 3 3 4 4 5 5 3 2 1 0 0 0
0 0 1 1 1 0 0 0 0 0 0 0 0 0 0 0 0 0 0 0 0 0 0 0 0 1 1 1 1 2 2 2 2 3 2 2 3 4 3 2 1 0 0 0
0 0 0 0 0 0 0 0 0 0 0 0 0 0 0 0 0 0 0 0 0 0 0 0 0 0 0 0 0 1 1 1 1 1 1 1 1 1 1 1 0 0 0 0
0 0 0 0 0 0 0 0 0 0 0 0 0 0 0 0 0 0 0 0 0 0 0 0 0 0 0 0 0 0 0 0 0 0 0 0 0 0 0 0 0 0 0 0
0 0 0 0 0 0 0 0 0 0 0 0 0 0 0 0 0 0 0 0 0 0 0 0 0 0 0 0 0 0 0 0 0 0 0 0 0 0 0 0 0 0 0 0
0 0 0 0 0 0 0 0 0 0 0 0 0 0 0 0 0 0 0 0 0 0 0 0 0 0 0 0 0 0 0 0 0 0 0 0 0 0 0 0 0 0 0 0
0 0 0 0 0 0 0 0 0 0 0 0 0 0 0 0 0 0 0 0 0 0 0 0 0 0 0 0 0 0 0 0 0 0 0 0 0 0 0 0 0 0 0 0
0 0 0 0 0 0 0 0 0 0 0 0 0 0 0 0 0 0 0 0 0 0 0 0 0 0 0 0 0 0 0 0 0 0 0 0 0 0 0 0 0 0 0 0
0 0 0 0 0 0 0 0 0 0 0 0 0 0 0 0 0 0 0 0 0 0 0 0 0 0 0 0 0 0 0 0 0 0 0 0 0 0 0 0 0 0 0 0
0 0 0 0 0 0 0 0 0 0 0 0 0 0 0 0 0 0 0 0 0 0 0 0 0 0 0 0 0 0 0 0 0 0 0 0 0 0 0 0 0 0 0 0
Wind_Speed
8 6 7 9 10 11 12 13 13 10 9 6 4 4 4 3 1 3 6 8 10 11 12 13 14 14 14 14 14 14 14 14 14 13 13 13 13 13 12 12 13 12 11 11
8 8 9 10 11 11 11 12 12 12 9 4 3 3 3 3 2 2 4 6 9 10 12 13 15 15 15 15 15 15 15 15 14 14 14 13 13 13 13 12 12 12 12 12
8 6 8 11 9 9 9 9 11 11 5 3 3 4 4 3 3 3 2 4 6 8 10 12 14 15 16 16 15 15 15 15 15 15 15 14 14 14 13 13 13 12 12 12
6 6 11 1 2 3 5 6 6 5 3 3 3 4 3 3 4 4 4 4 5 6 8 10 12 14 15 15 16 16 16 15 15 15 15 14 14 14 13 12 12 12 12 12
6 9 7 3 1 2 5 5 3 3 2 3 3 4 2 3 4 5 6 6 5 6 8 9 11 13 15 15 16 16 16 16 16 16 15 15 15 14 13 12 12 12 11 12
7 9 7 2 3 2 5 5 2 3 3 3 4 5 1 6 7 7 7 6 5 5 7 8 9 12 14 15 15 16 16 15 15 15 15 15 15 14 12 11 11 11 11 11
9 9 3 4 2 3 6 2 4 5 5 5 4 4 5 7 7 7 7 6 4 4 5 6 8 10 13 14 14 14 13 13 13 14 14 14 13 12 11 11 11 10 10 10
6 8 3 3 1 2 4 5 5 5 5 4 3 3 4 5 7 7 7 6 4 2 2 3 6 9 11 12 11 11 11 12 13 13 12 11 12 11 11 11 11 10 9 9
2 1 5 4 4 4 4 4 4 5 5 4 3 3 4 5 6 7 8 7 5 2 1 1 3 6 8 9 9 10 11 11 11 11 10 10 10 11 10 10 9 9 8 8
2 2 2 3 4 4 4 4 4 4 3 3 3 4 4 5 6 7 7 7 6 5 5 4 2 3 3 5 7 9 9 9 8 9 9 8 7 7 7 8 8 8 7 7
2 1 1 2 4 5 4 5 5 5 5 4 4 5 5 5 6 6 6 6 6 6 6 6 5 4 3 3 6 7 7 7 7 7 7 6 5 3 4 3 2 4 5 5
1 2 1 3 4 4 5 6 6 6 8 8 7 7 7 7 7 7 7 7 8 8 8 8 7 7 6 4 5 6 6 5 5 5 5 5 6 5 8 6 7 6 5 2
2 3 4 4 3 5 6 6 7 8 9 9 9 8 8 8 8 8 8 9 10 10 10 9 9 9 7 6 6 6 6 5 5 5 5 5 5 6 6 6 8 8 6 5
1 2 2 3 3 4 6 7 8 9 10 10 9 9 9 9 9 11 11 10 10 11 11 11 11 10 8 7 8 8 7 7 5 4 4 4 5 4 4 5 5 4 4 5
2 2 3 4 4 5 6 7 8 9 10 10 10 10 11 11 11 11 11 11 11 12 12 12 12 11 8 8 10 9 7 6 5 5 4 4 4 4 4 4 4 4 4 5
3 4 5 6 6 6 7 8 9 9 10 10 10 10 11 11 11 12 12 12 12 13 12 12 12 10 9 9 9 8 8 9 6 5 5 5 4 4 4 4 3 3 3 3
4 5 6 7 7 8 8 8 9 10 10 11 10 10 10 11 12 13 12 12 12 12 12 12 11 10 10 9 8 7 6 7 6 5 5 5 4 4 3 3 3 3 3 4
3 5 6 7 8 9 9 9 9 10 10 10 10 10 10 11 11 11 10 10 11 12 12 11 11 10 11 10 8 6 6 6 6 6 5 5 4 4 4 3 3 3 3 4
6 7 8 9 9 9 9 9 10 10 9 9 10 10 10 10 10 10 9 10 10 10 9 9 8 9 10 9 6 5 6 6 6 6 5 5 4 4 4 3 3 3 3 2
8 9 10 10 10 10 10 10 10 9 8 9 9 10 10 9 8 8 9 10 9 8 7 7 8 9 8 8 6 6 7 6 6 6 5 5 5 4 4 4 3 3 3 2
9 10 11 11 10 9 9 9 9 9 8 8 9 9 9 8 7 7 6 8 7 7 6 5 6 7 7 6 5 6 6 6 6 5 5 5 4 4 4 4 3 3 3 3
9 10 11 11 10 9 7 7 8 9 8 8 8 8 8 7 7 7 8 6 6 5 4 5 7 9 9 7 5 6 6 6 5 5 5 4 4 4 4 4 3 3 3 3
8 9 10 9 9 9 8 7 7 7 8 8 7 6 6 5 4 4 6 6 5 5 5 7 8 7 8 4 5 6 6 6 5 5 5 4 4 4 4 4 3 3 3 3
9 9 8 8 8 8 7 7 7 6 7 6 7 6 5 4 5 5 6 6 6 5 5 7 6 6 6 4 5 5 5 5 5 5 4 4 4 4 4 4 4 3 4 4
8 8 8 8 7 6 7 7 7 6 6 5 6 6 5 5 5 5 5 6 5 3 4 5 3 4 3 5 5 5 5 5 5 5 4 4 4 4 4 4 4 4 4 4
8 7 6 6 6 4 4 4 4 4 4 4 4 4 4 4 4 4 3 4 5 3 3 3 3 2 4 5 5 5 4 3 3 3 4 4 4 4 4 5 6 5 4 5
7 6 5 5 5 4 4 4 4 4 4 4 4 4 3 3 3 3 3 2 2 3 3 3 3 4 4 4 4 4 4 4 4 4 4 4 4 4 4 5 4 4 4 4
Wind_Direction
261 259 246 243 240 237 242 256 267 273 273 297 330 331 337 335 285 187 181 185 188 187 186 187 187 187 186 186 184 183 185 187 186 185 183 184 183 185 186 191 193 191 193 196
243 242 245 249 247 247 251 258 262 267 269 322 340 341 338 336 317 230 202 197 195 194 192 194 191 189 187 187 185 186 190 191 187 185 186 188 187 187 188 192 196 193 196 198
240 232 247 241 239 245 247 256 267 270 283 311 312 332 339 336 321 309 262 220 208 204 199 198 196 192 190 188 185 188 193 194 190 188 188 189 190 189 191 193 195 196 199 202
247 232 238 201 57 289 276 277 285 288 296 305 319 317 313 322 328 324 318 278 234 220 209 201 198 193 192 189 188 190 193 195 193 191 190 189 192 193 194 195 196 198 201 203
242 238 240 179 143 288 275 273 323 315 317 326 321 274 229 42 2 337 322 300 272 240 220 206 198 194 190 190 190 192 195 195 193 193 192 191 194 194 194 196 198 200 202 204
239 247 243 111 71 339 274 241 60 347 332 321 292 270 39 18 349 336 325 310 285 252 224 205 196 191 191 192 192 195 196 196 192 192 193 193 194 194 194 197 200 202 204 206
236 243 245 58 17 270 250 39 16 340 332 319 325 328 340 338 338 336 330 322 303 260 225 205 189 186 193 195 196 196 194 192 191 191 193 192 191 191 191 194 198 205 205 204
233 237 214 56 332 323 360 358 337 331 331 325 324 322 338 346 347 348 347 346 339 299 230 198 183 184 191 196 195 191 190 190 189 189 192 190 189 190 191 192 194 200 203 205
276 18 58 40 26 10 342 327 328 325 326 327 334 350 2 5 4 2 360 3 4 16 62 115 171 181 191 192 185 182 185 187 186 186 190 186 186 188 190 194 202 200 199 202
211 145 83 38 26 7 355 346 344 344 348 3 13 16 23 23 17 16 13 13 19 37 50 51 73 146 177 175 172 173 175 176 176 176 176 177 179 185 191 193 199 200 198 198
216 141 132 62 24 13 15 24 26 31 41 50 52 48 49 43 34 31 27 27 39 49 52 49 49 64 89 123 145 154 157 158 160 163 164 161 156 148 184 181 198 203 201 195
326 39 3 64 41 31 42 42 41 49 57 59 62 63 61 57 50 46 42 41 50 54 55 53 55 56 55 82 120 132 136 140 147 151 149 152 148 127 67 65 69 66 50 73
5 33 61 79 64 51 56 56 58 63 66 66 66 69 71 68 62 56 51 51 54 56 57 57 58 56 53 61 91 108 116 123 128 133 138 148 149 144 135 97 76 73 76 83
60 95 97 94 85 79 77 74 73 75 75 73 76 74 73 71 66 62 57 57 58 59 58 59 61 57 53 67 82 90 94 91 97 110 125 135 136 139 143 142 136 121 99 102
63 94 115 112 105 100 97 92 85 81 79 77 76 76 75 73 69 64 61 62 62 59 56 57 59 56 53 67 76 78 78 79 82 89 96 103 113 121 124 127 130 134 136 128
102 110 114 112 110 109 105 100 94 90 87 86 81 78 79 79 76 70 63 60 61 58 53 54 55 52 53 64 75 78 77 69 72 89 98 99 100 105 108 118 126 128 127 121
134 124 118 114 112 105 101 101 103 102 98 94 92 90 87 82 76 70 66 63 62 60 53 51 50 48 51 54 61 74 80 84 85 82 81 84 89 95 100 108 113 115 105 87
123 121 116 113 110 106 104 104 105 103 101 103 101 95 88 83 79 75 72 70 67 61 52 47 45 48 49 46 46 54 65 68 69 70 70 68 74 90 98 101 105 101 97 108
112 113 109 107 106 108 106 104 101 98 98 99 97 92 87 83 82 81 78 74 68 62 51 48 41 51 56 49 40 66 64 67 69 70 72 76 75 75 76 79 80 80 82 82
106 108 108 105 101 101 102 103 102 99 97 96 96 94 90 86 84 81 75 68 58 54 50 43 49 52 51 43 22 59 63 62 63 63 62 60 60 62 64 63 59 56 52 45
109 110 109 103 98 93 93 100 105 105 102 101 98 95 94 92 90 87 80 79 67 50 48 48 47 44 42 30 27 51 55 55 55 55 54 53 54 52 51 51 47 42 36 27
109 110 111 108 105 99 94 97 102 104 105 102 97 96 96 93 88 81 72 68 72 36 29 52 53 40 16 358 42 47 48 46 46 46 44 43 42 43 42 37 35 31 26 18
103 106 110 109 108 107 104 99 98 98 97 95 92 89 81 73 72 77 82 72 67 48 42 53 44 21 346 5 42 44 42 39 36 36 33 29 31 33 31 27 24 17 11 360
106 107 109 112 112 109 105 101 96 93 93 91 85 80 77 80 77 71 74 82 63 52 59 63 40 3 332 24 37 39 38 35 34 32 29 24 23 24 21 15 10 5 2 355
104 105 108 112 111 107 109 112 110 106 99 89 85 79 67 62 65 71 73 77 81 69 77 88 70 342 9 39 39 40 38 31 20 16 25 25 21 20 16 10 5 1 359 357
97 93 90 87 89 99 105 104 103 101 92 86 77 68 67 70 75 82 86 88 80 68 56 60 61 49 46 43 39 37 40 48 34 28 29 23 21 20 20 13 5 360 359 360
104 102 99 95 91 83 81 81 82 79 78 76 68 66 69 72 72 71 71 67 65 58 52 46 42 44 47 46 48 46 39 35 31 28 27 23 21 18 16 10 5 0 350 352